Hourly Data Report for October 16, 2015

All times are specified in Local Standard Time (LST). Add 1 hour to adjust for Daylight Saving Time where and when it is observed.

RESOLUTE BAY A
NUNAVUT

74°43'01.000" N
94°58'10.000" W
67.70 m
2403498
71924
YRB

Download Data

Hourly Data (October 2015)
Hourly Data Report for October 16, 2015
Temp Definition
°C
Dew Point Temp Definition
°C
Rel Hum Definition
%
Wind Dir Definition
10's deg

Wind Spd Definition
km/h
Visibility Definition
km
Stn Press Definition
kPa
Hmdx Definition


Wind Chill Definition


Weather Definition


TIME
00:00 Legend Double Dagger -10.1 -11.7 88 32 44 11.3 99.34   -21 Snow
01:00 Legend Double Dagger -9.9 -11.2 90 32 40 11.3 99.40   -21 Snow
02:00 Legend Double Dagger -10.3 -11.6 90 32 34 11.3 99.42   -20 Snow
03:00 Legend Double Dagger -11.2 -12.8 88 32 35 16.1 99.53   -22 Snow
04:00 Legend Double Dagger -11.5 -13.3 87 32 30 16.1 99.58   -21 Snow
05:00 Legend Double Dagger -10.8 -12.3 89 33 32 16.1 99.60   -21 Snow
06:00 Legend Double Dagger -9.9 -11.5 88 32 46 16.1 99.63   -21 Snow
07:00 Legend Double Dagger -9.7 -11.3 88 32 39 16.1 99.66   -20 Snow
08:00 Legend Double Dagger -9.9 -11.5 88 33 36 19.3 99.69   -20 Snow
09:00 Legend Double Dagger -10.2 -11.7 89 32 36 16.1 99.72   -21 Snow
10:00 Legend Double Dagger -10.5 -12.1 88 32 28 12.9 99.76   -20 Snow
11:00 Legend Double Dagger -11.2 -13.3 85 33 32 12.9 99.81   -21 Snow
12:00 Legend Double Dagger -11.9 -13.8 86 34 30 9.7 99.86   -22 Snow
13:00 Legend Double Dagger -11.8 -13.8 85 33 35 16.1 99.91   -23 Snow
14:00 Legend Double Dagger -12.9 -14.8 86 34 29 9.7 99.97   -23 Snow
15:00 Legend Double Dagger -12.8 -14.7 86 32 27 12.9 100.02   -23 Snow
16:00 Legend Double Dagger -14.1 -16.0 86 33 32 12.9 100.08   -25 LegendNANA
17:00 Legend Double Dagger -14.6 -16.5 86 33 26 12.9 100.14   -25 LegendNANA
18:00 Legend Double Dagger -13.4 -15.3 86 34 25 16.1 100.18   -23 Mostly Cloudy
19:00 Legend Double Dagger -13.3 -15.0 87 34 25 16.1 100.18   -23 Snow
20:00 Legend Double Dagger -13.5 -15.5 85 36 30 16.1 100.16   -24 Snow
21:00 Legend Double Dagger -13.7 -16.1 82 1 28 16.1 100.16   -24 Snow
22:00 Legend Double Dagger -14.5 -16.5 85 35 23 16.1 100.19   -24 Snow
23:00 Legend Double Dagger -15.3 -17.6 83 35 18 16.1 100.22   -24 Snow

Notes on Data Quality.

Legend

  • E = Estimated
  • M = Missing
  • NA = Not Available
  • ‡ = Partner data that is not subject to review by the National Climate Archives
Date modified: